TimeEDT,TemperatureF,Dew PointF,Humidity,Sea Level PressureIn,VisibilityMPH,Wind Direction,Wind SpeedMPH,Gust SpeedMPH,PrecipitationIn,Events,Conditions,WindDirDegrees,DateUTC
12:53 AM,52.0,39.0,61,30.35,10.0,ENE,6.9,-,N/A,,Partly Cloudy,60,2013-04-22 04:53:00
1:53 AM,51.1,39.0,63,30.34,10.0,ENE,5.8,-,N/A,,Clear,60,2013-04-22 05:53:00
2:53 AM,50.0,39.0,66,30.34,10.0,NE,6.9,-,N/A,,Clear,50,2013-04-22 06:53:00
3:53 AM,48.0,39.0,71,30.33,10.0,NE,6.9,-,N/A,,Clear,50,2013-04-22 07:53:00
4:53 AM,46.0,39.0,76,30.33,10.0,NNE,5.8,-,N/A,,Clear,30,2013-04-22 08:53:00
5:53 AM,45.0,39.0,80,30.35,10.0,NNE,5.8,-,N/A,,Clear,30,2013-04-22 09:53:00
6:53 AM,45.0,37.9,76,30.38,10.0,NE,10.4,-,N/A,,Clear,40,2013-04-22 10:53:00
7:53 AM,46.0,37.9,73,30.39,10.0,NNE,9.2,-,N/A,,Clear,30,2013-04-22 11:53:00
8:53 AM,48.0,37.0,66,30.39,10.0,NE,16.1,-,N/A,,Clear,40,2013-04-22 12:53:00
9:53 AM,51.1,37.0,59,30.38,10.0,NE,16.1,23.0,N/A,,Clear,50,2013-04-22 13:53:00
10:53 AM,53.1,36.0,52,30.37,10.0,NE,12.7,20.7,N/A,,Clear,50,2013-04-22 14:53:00
11:53 AM,55.0,36.0,49,30.35,10.0,ENE,13.8,20.7,N/A,,Clear,60,2013-04-22 15:53:00
12:53 PM,57.0,36.0,45,30.32,10.0,ENE,11.5,21.9,N/A,,Clear,70,2013-04-22 16:53:00
1:53 PM,59.0,36.0,42,30.29,10.0,NE,10.4,20.7,N/A,,Clear,40,2013-04-22 17:53:00
2:53 PM,61.0,37.0,41,30.27,9.0,ENE,13.8,18.4,N/A,,Clear,60,2013-04-22 18:53:00
3:53 PM,62.1,36.0,38,30.24,9.0,East,9.2,19.6,N/A,,Clear,80,2013-04-22 19:53:00
4:53 PM,62.1,35.1,37,30.22,10.0,ENE,13.8,18.4,N/A,,Clear,70,2013-04-22 20:53:00
5:53 PM,63.0,35.1,35,30.20,10.0,NNE,8.1,-,N/A,,Clear,30,2013-04-22 21:53:00
6:53 PM,62.1,32.0,32,30.20,10.0,East,8.1,-,N/A,,Clear,80,2013-04-22 22:53:00
7:53 PM,57.9,33.1,39,30.20,10.0,NE,5.8,-,N/A,,Clear,50,2013-04-22 23:53:00
8:53 PM,55.0,34.0,45,30.22,10.0,ENE,5.8,-,N/A,,Clear,60,2013-04-23 00:53:00
9:53 PM,53.1,34.0,48,30.24,9.0,Calm,Calm,-,N/A,,Clear,0,2013-04-23 01:53:00
10:53 PM,51.1,34.0,52,30.25,10.0,Calm,Calm,-,N/A,,Clear,0,2013-04-23 02:53:00
11:53 PM,48.9,35.1,59,30.24,10.0,North,3.5,-,N/A,,Clear,10,2013-04-23 03:53:00